Home > Weather > Puerto Vallarta > Past weeks

Flag for Mexico Past Weather in Puerto Vallarta, Jalisco, Mexico — Yesterday and Last 2 Weeks

Now
79 °F

Mostly cloudy.


Feels Like: 83 °F
Forecast: 79 / 87 °F
Wind: 5 mph from East

Location: Puerto Vallarta / Lic

Current Time: Jul 1, 2016 at 1:19:44 AM

Latest Report: Jun 30, 2016 at 11:45 PM


Visibility: 10 mi

Pressure: 29.93 "Hg

Humidity: 94%

Dew Point: 77 °F

Location of Puerto VallartaLocation

Past Weather in Puerto Vallarta — Graph

°F

Puerto Vallarta Temperature Yesterday

Maximum temperature yesterday: 88 °F (at 1:50 PM)
Minimum temperature yesterday: 77 °F (at 6:52 AM)
Average temperature yesterday: 83 °F

High & Low Weather Summary for the Past Weeks

 TemperatureHumidityPressure
High91 °F (Jun 17, 12:48 PM)100% (Jun 15, 11:46 PM)29.99 "Hg (Jun 15, 11:46 PM)
Low72 °F (Jun 19, 4:45 AM)59% (Jun 17, 12:48 PM)29.79 "Hg (Jun 28, 6:52 PM)
Average82 °F83%29.89 "Hg
* Reported Jun 15 11:46 PM — Jun 30 11:45 PM, Puerto Vallarta, Weather by CustomWeather, © 2016

Note: Actual official high and low records may vary slightly from our data, if they occured in-between our weather recording intervals... More about our weather records

Advertising

Puerto Vallarta Weather History for the Previous 24 Hours

Scroll right to see more
 ConditionsComfort  
Time TempWeatherWind HumidityBarometerVisibility
11:45 PM
Thu, Jun 30
79 °FMostly cloudy.5 mph94%29.93 "Hg10 mi
10:43 PM79 °FThunderstorms. Overcast.5 mph94%29.93 "Hg6 mi
8:49 PM84 °FBroken clouds.8 mph84%29.87 "Hg15 mi
7:45 PM86 °FBroken clouds.8 mph79%29.84 "Hg15 mi
6:49 PM88 °FBroken clouds.12 mph75%29.80 "Hg15 mi
4:49 PM88 °FScattered clouds.12 mph75%29.83 "Hg15 mi
3:50 PM88 °FScattered clouds.14 mph75%29.85 "Hg15 mi
2:49 PM88 °FPassing clouds.12 mph79%29.87 "Hg15 mi
1:50 PM88 °FScattered clouds.9 mph75%29.88 "Hg15 mi
10:46 AM86 °FPassing clouds.6 mph75%29.91 "Hg15 mi
9:48 AM86 °FPassing clouds.No wind70%29.90 "Hg15 mi
8:47 AM81 °FScattered clouds.No wind84%29.89 "Hg15 mi
7:48 AM77 °FPassing clouds.No wind94%29.89 "Hg15 mi
6:52 AM77 °FPassing clouds.3 mph94%29.87 "Hg15 mi
5:46 AM79 °FPassing clouds.3 mph94%29.86 "Hg15 mi
3:49 AM79 °FClear.3 mph94%29.86 "Hg12 mi
Weather by CustomWeather, © 2016

See weather overviewHow to use our weather pages